www.pogodaiklimat.ru

ПОГОДА в Айронвуде, MI

  • Прогноз погоды в Айронвуде
  • Монитор погоды в Айронвуде
  • Климат в Айронвуде

АРХИВ ПОГОДЫ в Айронвуде

Время (UTC), дата Ветер
(напр.,м/с)
 
Видим.   Явления Облачность Т
(С)
Тd
(С)
f
(%)
Тe
(С)
Тes
(С)
Комфортность

P
(гПа)

Po
(гПа)
Тmin
(С)
Tmax
(С)
R
(мм)
SD
(см)
21:56 24.03 С  16 км    ясно  -2.8  -8.9  63  -9  -8    1026.7  980.2         
22:56 24.03 СВ  16 км    ясно  -3.3  -8.9  65  -9  -8    1027.4  980.8  -3.3  -0.6     
23:56 24.03 СВ  16 км    ясно  -5.0  -8.9  74  -10  -10    1028.2  981.5         
00:56 25.03 СВ  16 км    ясно  -5.6  -10.6  68  -10  -10    1028.9  982.1         
02:56 25.03   16 км    ясно  -7.8  -14.4  59  -8  -8    1029.7  982.4         
03:56 25.03 ЮВ  16 км    ясно  -8.9  -14.4  64  -15  -15    1029.8  982.8         
04:56 25.03   16 км    ясно  -10.6  -14.4  74  -11  -11    1030.0  982.8  -10.6  -3.3     
05:56 25.03   16 км    ясно  -10.6  -15.6  67  -11  -11    1030.3  983.1         
06:56 25.03   16 км    ясно  -12.8  -14.4  88  -13  -13    1030.5  983.1         
07:56 25.03   16 км    ясно  -13.9  -15.6  87  -14  -14    1030.6  983.1         
08:56 25.03   16 км    ясно  -13.9  -16.1  83  -14  -14    1030.8  983.4         
09:56 25.03   16 км    ясно  -15.6  -16.7  91  -16  -16    1031.2  983.4         
10:56 25.03   16 км    ясно  -16.1  -17.2  91  -16  -16    1031.6  983.7  -16.1  -8.3     
11:56 25.03   16 км    ясно  -12.2  -15.0  80  -12  -12    1031.8  984.0         
12:56 25.03   16 км    ясно  -5.0  -10.0  68  -6  -4    1031.6  984.4         
13:56 25.03   16 км    ясно  0.0  -9.4  49  -0  +4    1031.6  984.4         
14:56 25.03   16 км    ясно  -2.2  -14.4  39  -2  +5    1031.6  984.4         
15:56 25.03 С  16 км    ясно  0.0  -14.4  33  -3  +5    1031.3  984.0         
16:56 25.03 СЗ  16 км    ясно  0.0  -17.2  26  -4  +3    1031.0  983.7  -16.1  +1.1     
17:56 25.03 нст  16 км    ясно  +0.6  -18.3  23  -2  +8    1030.7  983.4         
18:56 25.03 нст  16 км    ясно  +1.1  -17.8  23  -3  +5    1030.2  983.1         
19:56 25.03 СЗ  16 км    ясно  +1.7  -14.4  29  -3  +2    1030.0  982.8         
20:56 25.03 СЗ  16 км    ясно  +1.7  -15.0  28  -3  +1    1029.7  982.4         
21:56 25.03 СЗ  16 км    ясно  +2.2  -16.1  24  -2  0    1029.6  982.4         
22:56 25.03 З  16 км    ясно  +1.1  -16.7  25  -2  -1    1029.6  982.1  0.0  +2.2     
23:56 25.03   16 км    ясно  -2.2  -12.2  46  -3  -3    1029.5  982.1         
00:56 26.03   16 км    ясно  -3.9  -9.4  66  -5  -5    1029.4  982.4         
01:56 26.03   16 км    ясно  -4.4  -12.2  54  -5  -5    1029.6  982.8         
02:56 26.03   16 км    ясно  -6.7  -9.4  81  -7  -7    1030.0  982.8         
03:56 26.03   16 км    ясно  -7.8  -11.1  77  -8  -8    1030.0  983.1         
04:56 26.03   16 км    ясно  -8.3  -11.7  76  -9  -9    1030.0  983.1  -8.9  +1.7     
05:56 26.03   16 км    ясно  -8.9  -11.1  84  -9  -9    1030.3  983.1         
06:56 26.03   16 км    ясно  -9.4  -11.1  87  -10  -10    1030.2  983.1         
07:56 26.03   16 км    ясно  -11.1  -12.2  92  -11  -11    1030.0  982.8         
08:56 26.03   16 км    ясно  -11.1  -12.8  87  -11  -11    1030.1  983.1         
09:56 26.03   16 км    ясно  -11.7  -13.3  88  -12  -12    1030.3  983.1         
10:56 26.03   16 км    ясно  -11.7  -13.3  88  -12  -12    1030.5  983.4  -12.2  -7.8     
11:56 26.03   16 км    ясно  -10.6  -13.3  80  -11  -11    1031.0  983.7         
12:56 26.03   16 км    ясно  -1.7  -14.4  37  -2  -1    1030.7  983.7         
13:56 26.03 ЮЗ  16 км    ясно  +1.7  -15.0  28  -2  0    1030.3  983.4         
14:56 26.03 Ю  16 км    ясно  +3.9  -16.1  22  -0  +2    1030.0  983.1         
15:56 26.03 Ю  4
{9} 
16 км    ясно  +4.4  -16.1  21  +1  +5    1029.3  982.4         
16:56 26.03 Ю  16 км    ясно  +5.0  -16.1  20  +1  +7    1028.9  982.1  -11.7  +5.0     
17:56 26.03 Ю  16 км    ясно  +5.6  -16.1  19  +2  +9    1028.2  981.5         
18:56 26.03 Ю  16 км    ясно  +6.7  -15.0  19  +4  +10    1027.0  980.5         
19:56 26.03 ЮЗ  16 км    ясно  +7.2  -13.9  21  +3  +5    1025.9  979.2         
20:56 26.03 ЮЗ  16 км    ясно  +6.7  -12.8  23  +3  +5    1025.5  978.9         
21:56 26.03 ЮЗ  16 км    ясно  +6.7  -10.6  28  +4  +6    1025.2  978.5         

 

Местоположение метеостанции Gogebic-Iron County Airport: широта 46.5333 долгота -90.1333 высота над уровнем моря 375 м.

В архиве по умолчанию представлена погода в Айронвуде за последние 1-2 суток. Обновление информации о фактической погоде в базе происходит ежечасно! Архивные данные за месяц целиком и за предыдущие месяцы Вы можете получить, выбрав интересующий диапазон дат из раскрывающегося списка и нажав кнопку "Ввод!".

Внимание! Архив погоды МЕТАР в базе сайта хранится не более 60 дней. Нет смысла пытаться выбрать более раннюю дату.

Внимание! Время в таблицах - всемирное. Для получения местного времени необходимо прибавить поправку, которая в Айронвуде равна -6 ч.

Ветер - указаны скорость ветра в м/с и направление, откуда дует ветер: С - северный, СВ - северо-восточный, В - восточный, ЮВ - юго-восточный, Ю - южный, ЮЗ - юго-западный, З - западный, СЗ - северо-западный.
Видимость - горизонтальная дальность видимости в метрах или километрах. При видимости от 1 до 10 км при отсутствии осадков обычно наблюдается дымка, при ухудшении видимости до 1 км и менее - туман. В сухую погоду видимость может ухудшаться дымом, пылью или мглою.
Атмосферные явления - указаны явления, наблюдавшиеся в указанный момент времени.
Облачность - указаны через наклонную черту верхняя и нижняя облачность в баллах и высота нижней границы облаков в метрах. Внимание: облачность, как и прочие метеорологические величины в США измеряются автоматическими метеостанциями. Указанные значения в баллах носят условный характер и показывают процент времени, в течение которого, в среднем, лазерный луч высотомера отражался от облаков обратно.
T - Температура воздуха - температура, измеренная на высоте 2 м над землей.
Td - Температура точки росы - температура, при понижении до которой содержащийся в воздухе водяной пар достигнет насыщения.
f - Относительная влажность воздуха - влажноcть воздуха, измеренная на высоте 2 м над землей.
Te - Эффективная температура - температура, которую ощущает одетый по сезону человек в тени. Характеристика душности погоды. При расчете учитывается влияние влажности воздуха и скорости ветра на теплоощущения человека.
Tes - Эффективная температура на солнце - температура, которую ощущает человек, с поправкой на солнечный нагрев. Характеристика знойности погоды. Зависит от высоты солнца над горизонтом, облачности и скорости ветра. Ночью, в пасмурную погоду, а также при ветре 12 м/с и более поправка равна нулю.
P - Атмосферное давление - приведенное к уровню моря атмосферное давление.
Po - Атмосферное давление - измеренное на уровне метеостанции атмосферное давление.
Tmin - Минимальная температура - минимум температуры воздуха на высоте 2 м над землей.
Tmax - Максимальная температура - максимум температуры воздуха на высоте 2 м над землей.
R - Количество осадков - Количество выпавших осадков за 3 или 6 часов, мм.
SD - Снежный покров - Высота снежного покрова, см.